Time,TemperatureF,DewpointF,PressureIn,WindDirection,WindDirectionDegrees,WindSpeedMPH,WindSpeedGustMPH,Humidity,HourlyPrecipIn,Conditions,Clouds,dailyrainin,SolarRadiationWatts/m^2,SoftwareType,DateUTC
2013-05-05 00:09:00,67.6,67.0,29.79,SW,223,0.0,-999.0,97,-99.99,,,0.00,0,weatherlink.com 1.10,2013-05-05 04:09:00,
2013-05-05 00:24:00,67.3,67.0,29.79,SW,223,0.0,-999.0,98,-99.99,,,0.00,0,weatherlink.com 1.10,2013-05-05 04:24:00,
2013-05-05 00:39:00,66.8,66.0,29.78,SW,223,0.0,-999.0,98,-99.99,,,0.00,0,weatherlink.com 1.10,2013-05-05 04:39:00,
2013-05-05 00:54:00,66.4,66.0,29.78,SW,223,0.0,-999.0,99,-99.99,,,0.00,0,weatherlink.com 1.10,2013-05-05 04:54:00,
2013-05-05 01:09:00,66.3,66.0,29.78,SW,223,0.0,-999.0,100,-99.99,,,0.00,0,weatherlink.com 1.10,2013-05-05 05:09:00,
2013-05-05 01:24:00,66.4,66.0,29.78,SW,223,0.0,-999.0,100,-99.99,,,0.00,0,weatherlink.com 1.10,2013-05-05 05:24:00,
2013-05-05 01:39:00,66.8,67.0,29.78,SW,223,0.0,-999.0,100,-99.99,,,0.00,0,weatherlink.com 1.10,2013-05-05 05:39:00,
2013-05-05 01:54:00,67.3,67.0,29.77,NW,323,0.0,-999.0,100,-99.99,,,0.00,0,weatherlink.com 1.10,2013-05-05 05:54:00,
2013-05-05 02:09:00,67.3,67.0,29.77,NW,323,0.0,-999.0,99,-99.99,,,0.00,0,weatherlink.com 1.10,2013-05-05 06:09:00,
2013-05-05 02:24:00,66.8,67.0,29.76,NW,319,0.0,-999.0,99,-99.99,,,0.00,0,weatherlink.com 1.10,2013-05-05 06:24:00,
2013-05-05 02:39:00,66.6,66.0,29.76,WNW,297,0.0,-999.0,99,-99.99,,,0.00,0,weatherlink.com 1.10,2013-05-05 06:39:00,
2013-05-05 02:54:00,66.6,66.0,29.76,WNW,291,4.0,-999.0,99,-99.99,,,0.00,0,weatherlink.com 1.10,2013-05-05 06:54:00,
2013-05-05 03:09:00,66.8,67.0,29.76,West,259,0.0,-999.0,99,-99.99,,,0.00,0,weatherlink.com 1.10,2013-05-05 07:09:00,
2013-05-05 03:24:00,66.9,67.0,29.76,NW,309,2.0,-999.0,99,-99.99,,,0.00,0,weatherlink.com 1.10,2013-05-05 07:24:00,
2013-05-05 03:40:00,66.6,66.0,29.76,WNW,295,3.0,-999.0,98,-99.99,,,0.00,0,weatherlink.com 1.10,2013-05-05 07:40:00,
2013-05-05 03:54:00,66.6,66.0,29.76,NW,309,2.0,-999.0,97,-99.99,,,0.00,0,weatherlink.com 1.10,2013-05-05 07:54:00,
2013-05-05 04:10:00,66.8,66.0,29.76,NW,311,2.0,-999.0,97,-99.99,,,0.00,0,weatherlink.com 1.10,2013-05-05 08:10:00,
2013-05-05 04:24:00,66.8,66.0,29.77,NW,304,3.0,-999.0,96,-99.99,,,0.00,0,weatherlink.com 1.10,2013-05-05 08:24:00,
2013-05-05 04:39:00,66.8,66.0,29.77,West,260,5.0,-999.0,96,-99.99,,,0.00,0,weatherlink.com 1.10,2013-05-05 08:39:00,
2013-05-05 04:54:00,66.1,65.0,29.77,West,262,6.0,-999.0,97,-99.99,,,0.00,0,weatherlink.com 1.10,2013-05-05 08:54:00,
2013-05-05 05:09:00,65.5,65.0,29.78,West,277,11.0,-999.0,97,-99.99,,,0.00,0,weatherlink.com 1.10,2013-05-05 09:09:00,
2013-05-05 05:24:00,65.2,64.0,29.78,WNW,292,4.0,-999.0,97,-99.99,,,0.00,0,weatherlink.com 1.10,2013-05-05 09:24:00,
2013-05-05 05:39:00,65.2,64.0,29.79,NW,306,8.0,-999.0,95,-99.99,,,0.00,0,weatherlink.com 1.10,2013-05-05 09:39:00,
2013-05-05 05:54:00,65.3,63.0,29.79,NW,304,0.0,-999.0,93,-99.99,,,0.00,0,weatherlink.com 1.10,2013-05-05 09:54:00,
2013-05-05 06:09:00,64.8,63.0,29.79,NW,304,4.0,-999.0,92,-99.99,,,0.00,0,weatherlink.com 1.10,2013-05-05 10:09:00,
2013-05-05 06:24:00,64.2,62.0,29.80,WNW,300,4.0,-999.0,92,-99.99,,,0.00,0,weatherlink.com 1.10,2013-05-05 10:24:00,
2013-05-05 06:39:00,63.9,61.0,29.81,NW,306,4.0,-999.0,91,-99.99,,,0.00,0,weatherlink.com 1.10,2013-05-05 10:39:00,
2013-05-05 06:54:00,63.4,61.0,29.82,NW,326,2.0,-999.0,91,-99.99,,,0.00,9,weatherlink.com 1.10,2013-05-05 10:54:00,
2013-05-05 07:09:00,63.2,60.0,29.82,WNW,289,3.0,-999.0,90,-99.99,,,0.00,23,weatherlink.com 1.10,2013-05-05 11:09:00,
2013-05-05 07:25:00,63.4,60.0,29.83,WNW,290,3.0,-999.0,88,-99.99,,,0.00,56,weatherlink.com 1.10,2013-05-05 11:25:00,
2013-05-05 07:39:00,63.7,59.0,29.84,WNW,296,2.0,-999.0,85,-99.99,,,0.00,100,weatherlink.com 1.10,2013-05-05 11:39:00,
2013-05-05 07:54:00,64.0,59.0,29.85,NNW,334,8.0,-999.0,83,-99.99,,,0.00,153,weatherlink.com 1.10,2013-05-05 11:54:00,
2013-05-05 08:09:00,64.2,57.0,29.86,WNW,298,0.0,-999.0,78,-99.99,,,0.00,216,weatherlink.com 1.10,2013-05-05 12:09:00,
2013-05-05 08:24:00,64.5,57.0,29.87,NW,312,5.0,-999.0,76,-99.99,,,0.00,253,weatherlink.com 1.10,2013-05-05 12:24:00,
2013-05-05 08:39:00,64.8,56.0,29.86,NW,311,7.0,-999.0,72,-99.99,,,0.00,258,weatherlink.com 1.10,2013-05-05 12:39:00,
2013-05-05 08:54:00,65.5,55.0,29.87,WNW,286,0.0,-999.0,69,-99.99,,,0.00,367,weatherlink.com 1.10,2013-05-05 12:54:00,
2013-05-05 09:09:00,66.4,55.0,29.87,NW,311,11.0,-999.0,68,-99.99,,,0.00,438,weatherlink.com 1.10,2013-05-05 13:09:00,
2013-05-05 09:24:00,66.1,54.0,29.87,WNW,300,4.0,-999.0,65,-99.99,,,0.00,466,weatherlink.com 1.10,2013-05-05 13:24:00,
2013-05-05 09:39:00,67.1,53.0,29.88,NNW,342,11.0,-999.0,61,-99.99,,,0.00,533,weatherlink.com 1.10,2013-05-05 13:39:00,
2013-05-05 09:54:00,67.6,52.0,29.88,NW,325,5.0,-999.0,58,-99.99,,,0.00,587,weatherlink.com 1.10,2013-05-05 13:54:00,
2013-05-05 10:09:00,68.6,53.0,29.88,NW,314,1.0,-999.0,58,-99.99,,,0.00,636,weatherlink.com 1.10,2013-05-05 14:09:00,
2013-05-05 10:25:00,69.8,51.0,29.89,North,5,0.0,-999.0,51,-99.99,,,0.00,687,weatherlink.com 1.10,2013-05-05 14:25:00,
2013-05-05 10:39:00,70.1,55.0,29.90,WNW,297,4.0,-999.0,59,-99.99,,,0.00,726,weatherlink.com 1.10,2013-05-05 14:39:00,
2013-05-05 10:54:00,67.3,52.0,29.90,NW,310,1.0,-999.0,59,-99.99,,,0.00,742,weatherlink.com 1.10,2013-05-05 14:54:00,
2013-05-05 11:09:00,67.1,53.0,29.89,West,267,0.0,-999.0,62,-99.99,,,0.00,823,weatherlink.com 1.10,2013-05-05 15:09:00,
2013-05-05 11:25:00,66.4,54.0,29.89,NW,306,4.0,-999.0,65,-99.99,,,0.00,851,weatherlink.com 1.10,2013-05-05 15:25:00,
2013-05-05 11:39:00,68.1,53.0,29.89,NNW,331,3.0,-999.0,58,-99.99,,,0.00,844,weatherlink.com 1.10,2013-05-05 15:39:00,
2013-05-05 11:55:00,68.1,56.0,29.89,NW,313,3.0,-999.0,65,-99.99,,,0.00,914,weatherlink.com 1.10,2013-05-05 15:55:00,
2013-05-05 12:09:00,68.8,55.0,29.89,ESE,117,1.0,-999.0,62,-99.99,,,0.00,967,weatherlink.com 1.10,2013-05-05 16:09:00,
2013-05-05 12:24:00,67.9,53.0,29.89,NW,316,5.0,-999.0,59,-99.99,,,0.00,840,weatherlink.com 1.10,2013-05-05 16:24:00,
2013-05-05 12:39:00,67.3,55.0,29.89,NE,53,0.0,-999.0,64,-99.99,,,0.00,933,weatherlink.com 1.10,2013-05-05 16:39:00,
2013-05-05 12:55:00,66.0,56.0,29.89,NNW,346,6.0,-999.0,71,-99.99,,,0.00,995,weatherlink.com 1.10,2013-05-05 16:55:00,
2013-05-05 13:09:00,67.1,55.0,29.89,NW,305,7.0,-999.0,65,-99.99,,,0.00,997,weatherlink.com 1.10,2013-05-05 17:09:00,
2013-05-05 13:25:00,66.6,52.0,29.89,NW,306,5.0,-999.0,60,-99.99,,,0.00,1002,weatherlink.com 1.10,2013-05-05 17:25:00,
2013-05-05 13:39:00,66.9,55.0,29.88,NE,42,4.0,-999.0,65,-99.99,,,0.00,1007,weatherlink.com 1.10,2013-05-05 17:39:00,
2013-05-05 13:54:00,70.8,50.0,29.89,West,276,2.0,-999.0,48,-99.99,,,0.00,1013,weatherlink.com 1.10,2013-05-05 17:54:00,
2013-05-05 14:09:00,73.7,51.0,29.88,WNW,284,4.0,-999.0,45,-99.99,,,0.00,995,weatherlink.com 1.10,2013-05-05 18:09:00,
2013-05-05 14:25:00,74.6,49.0,29.88,West,279,4.0,-999.0,40,-99.99,,,0.00,981,weatherlink.com 1.10,2013-05-05 18:25:00,
2013-05-05 14:39:00,75.8,51.0,29.88,WNW,286,3.0,-999.0,42,-99.99,,,0.00,967,weatherlink.com 1.10,2013-05-05 18:39:00,
2013-05-05 14:54:00,76.1,51.0,29.87,WNW,300,4.0,-999.0,42,-99.99,,,0.00,947,weatherlink.com 1.10,2013-05-05 18:54:00,
2013-05-05 15:10:00,75.6,49.0,29.87,NW,305,4.0,-999.0,39,-99.99,,,0.00,926,weatherlink.com 1.10,2013-05-05 19:10:00,
2013-05-05 15:24:00,76.8,48.0,29.87,NW,312,6.0,-999.0,36,-99.99,,,0.00,902,weatherlink.com 1.10,2013-05-05 19:24:00,
2013-05-05 15:39:00,76.3,47.0,29.86,NW,316,10.0,-999.0,36,-99.99,,,0.00,877,weatherlink.com 1.10,2013-05-05 19:39:00,
2013-05-05 15:54:00,76.5,46.0,29.86,North,5,2.0,-999.0,34,-99.99,,,0.00,846,weatherlink.com 1.10,2013-05-05 19:54:00,
2013-05-05 16:10:00,77.2,46.0,29.85,NW,304,6.0,-999.0,33,-99.99,,,0.00,807,weatherlink.com 1.10,2013-05-05 20:10:00,
2013-05-05 16:24:00,77.0,49.0,29.84,NNW,327,6.0,-999.0,37,-99.99,,,0.00,759,weatherlink.com 1.10,2013-05-05 20:24:00,
2013-05-05 16:39:00,77.6,48.0,29.84,WSW,237,3.0,-999.0,35,-99.99,,,0.00,726,weatherlink.com 1.10,2013-05-05 20:39:00,
2013-05-05 16:55:00,77.0,50.0,29.85,WNW,292,7.0,-999.0,39,-99.99,,,0.00,675,weatherlink.com 1.10,2013-05-05 20:55:00,
2013-05-05 17:10:00,76.5,48.0,29.85,WNW,292,7.0,-999.0,37,-99.99,,,0.00,631,weatherlink.com 1.10,2013-05-05 21:10:00,
2013-05-05 17:24:00,77.2,50.0,29.85,West,281,7.0,-999.0,38,-99.99,,,0.00,580,weatherlink.com 1.10,2013-05-05 21:24:00,
2013-05-05 17:39:00,76.0,49.0,29.86,NNW,327,5.0,-999.0,39,-99.99,,,0.00,522,weatherlink.com 1.10,2013-05-05 21:39:00,
2013-05-05 17:54:00,75.4,49.0,29.86,WNW,284,2.0,-999.0,40,-99.99,,,0.00,476,weatherlink.com 1.10,2013-05-05 21:54:00,
2013-05-05 18:09:00,75.1,50.0,29.86,NW,313,5.0,-999.0,41,-99.99,,,0.00,415,weatherlink.com 1.10,2013-05-05 22:09:00,
2013-05-05 18:24:00,74.9,50.0,29.87,West,273,6.0,-999.0,41,-99.99,,,0.00,353,weatherlink.com 1.10,2013-05-05 22:24:00,
2013-05-05 18:39:00,74.6,49.0,29.88,WNW,300,0.0,-999.0,40,-99.99,,,0.00,288,weatherlink.com 1.10,2013-05-05 22:39:00,
2013-05-05 18:54:00,74.0,48.0,29.88,WNW,303,2.0,-999.0,40,-99.99,,,0.00,236,weatherlink.com 1.10,2013-05-05 22:54:00,
2013-05-05 19:10:00,73.3,49.0,29.88,NW,311,4.0,-999.0,42,-99.99,,,0.00,169,weatherlink.com 1.10,2013-05-05 23:10:00,
2013-05-05 19:24:00,72.5,49.0,29.88,WNW,302,2.0,-999.0,43,-99.99,,,0.00,93,weatherlink.com 1.10,2013-05-05 23:24:00,
2013-05-05 19:39:00,71.5,50.0,29.89,WNW,292,3.0,-999.0,46,-99.99,,,0.00,21,weatherlink.com 1.10,2013-05-05 23:39:00,
2013-05-05 19:55:00,69.8,51.0,29.89,WNW,300,0.0,-999.0,51,-99.99,,,0.00,11,weatherlink.com 1.10,2013-05-05 23:55:00,
2013-05-05 20:10:00,68.3,51.0,29.90,WNW,300,0.0,-999.0,55,-99.99,,,0.00,0,weatherlink.com 1.10,2013-05-06 00:10:00,
2013-05-05 20:24:00,67.1,52.0,29.90,WNW,300,0.0,-999.0,58,-99.99,,,0.00,0,weatherlink.com 1.10,2013-05-06 00:24:00,
2013-05-05 20:39:00,66.0,52.0,29.90,WNW,300,0.0,-999.0,62,-99.99,,,0.00,0,weatherlink.com 1.10,2013-05-06 00:39:00,
2013-05-05 20:55:00,65.3,53.0,29.91,WNW,300,1.0,-999.0,65,-99.99,,,0.00,0,weatherlink.com 1.10,2013-05-06 00:55:00,
2013-05-05 21:09:00,64.8,54.0,29.91,WNW,300,0.0,-999.0,67,-99.99,,,0.00,0,weatherlink.com 1.10,2013-05-06 01:09:00,
2013-05-05 21:24:00,63.9,54.0,29.91,WNW,300,0.0,-999.0,70,-99.99,,,0.00,0,weatherlink.com 1.10,2013-05-06 01:24:00,
2013-05-05 21:39:00,63.5,54.0,29.91,SW,229,0.0,-999.0,72,-99.99,,,0.00,0,weatherlink.com 1.10,2013-05-06 01:39:00,
2013-05-05 21:54:00,63.9,56.0,29.92,SW,229,2.0,-999.0,75,-99.99,,,0.00,0,weatherlink.com 1.10,2013-05-06 01:54:00,
2013-05-05 22:09:00,63.7,57.0,29.92,West,275,0.0,-999.0,78,-99.99,,,0.00,0,weatherlink.com 1.10,2013-05-06 02:09:00,
2013-05-05 22:24:00,63.2,57.0,29.92,West,275,0.0,-999.0,80,-99.99,,,0.00,0,weatherlink.com 1.10,2013-05-06 02:24:00,
2013-05-05 22:40:00,62.7,57.0,29.93,West,276,0.0,-999.0,81,-99.99,,,0.00,0,weatherlink.com 1.10,2013-05-06 02:40:00,
2013-05-05 22:54:00,62.6,57.0,29.93,West,276,0.0,-999.0,82,-99.99,,,0.00,0,weatherlink.com 1.10,2013-05-06 02:54:00,
2013-05-05 23:09:00,62.1,57.0,29.93,West,276,0.0,-999.0,83,-99.99,,,0.00,0,weatherlink.com 1.10,2013-05-06 03:09:00,
2013-05-05 23:24:00,62.1,58.0,29.93,West,276,0.0,-999.0,85,-99.99,,,0.00,0,weatherlink.com 1.10,2013-05-06 03:24:00,
2013-05-05 23:40:00,62.4,58.0,29.94,West,273,0.0,-999.0,86,-99.99,,,0.00,0,weatherlink.com 1.10,2013-05-06 03:40:00,
2013-05-05 23:54:00,62.7,58.0,29.93,West,271,0.0,-999.0,85,-99.99,,,0.00,0,weatherlink.com 1.10,2013-05-06 03:54:00,